Wind_Speed
20 19 18 19 20 20 20 19 18 18 18 17 16 14 13 14 15 17 17 16 16 15 16 16 16 16 16 17 17 17 17 17 18 18 19 19 19 19 19 19 18 18 18 18 17 17 17 17 17 18 18 18 18 18 19 19 20 20 20 20 20 20 20 20 20 20 21 21 21 22 22 23 23 24
19 18 18 19 20 20 19 19 18 18 18 17 16 15 14 15 16 18 17 17 16 16 15 15 16 16 16 17 17 18 18 18 18 19 19 20 19 19 19 19 18 18 18 18 18 18 18 18 19 19 19 20 20 20 20 21 21 21 21 21 21 21 22 22 22 22 22 23 23 24 24 25 25 26
19 18 18 19 20 20 19 18 18 18 18 17 17 16 15 16 17 18 17 17 17 15 15 15 16 17 17 18 18 19 19 19 19 19 20 20 19 19 19 19 19 18 18 19 19 19 20 21 21 21 21 21 22 22 22 22 22 22 22 22 22 23 23 23 23 23 24 24 25 25 26 26 27 27
20 19 19 19 20 19 18 18 18 18 18 18 17 16 16 17 18 18 17 17 17 16 16 16 17 18 19 20 20 20 20 19 20 20 20 20 19 19 20 19 19 19 19 20 20 21 22 23 23 23 24 23 23 23 23 23 23 23 23 23 24 24 24 25 25 25 25 26 26 26 27 27 28 28
21 20 20 19 19 19 18 18 18 18 19 19 18 17 16 17 18 18 17 17 17 17 18 19 20 21 21 21 21 20 20 20 20 20 20 20 20 20 20 21 21 21 21 22 22 23 24 24 25 25 25 25 25 24 24 24 24 24 25 25 25 26 26 26 27 27 27 28 28 28 29 29 29 30
21 20 20 19 19 19 18 18 18 19 19 19 18 17 17 17 18 18 18 18 19 20 20 21 21 21 21 21 20 20 20 20 20 21 21 21 21 21 22 22 23 23 23 23 24 24 24 25 25 25 26 26 26 26 26 26 26 26 26 27 27 27 28 28 29 29 30 30 30 31 31 31 31 32
21 20 19 18 18 18 18 18 19 20 20 19 18 17 17 18 19 19 19 20 20 21 21 21 20 20 20 20 20 20 21 21 21 22 22 22 23 23 24 24 25 25 25 25 25 25 25 26 26 26 26 27 27 27 27 27 27 28 28 29 29 30 30 30 31 31 32 32 33 34 34 34 35 35
21 20 19 18 18 18 18 19 20 20 20 19 18 18 19 19 20 20 20 21 21 21 20 20 19 20 20 20 21 21 22 22 23 24 24 25 25 25 26 27 27 27 27 27 27 27 27 27 27 28 28 28 28 28 28 29 29 29 30 31 31 32 32 32 33 33 34 34 35 36 37 37 38 38
21 20 19 19 18 18 18 20 21 21 20 20 20 20 20 20 20 20 20 21 21 21 20 20 20 21 21 21 22 22 23 24 25 26 26 26 27 27 28 28 29 29 29 29 29 29 29 29 29 30 30 30 30 30 29 29 30 30 31 31 32 32 33 33 33 34 34 35 35 36 37 38 39 39
21 20 20 19 19 19 19 20 21 21 21 21 21 20 20 20 21 21 21 22 23 22 22 21 22 22 22 23 23 24 25 26 27 27 28 28 28 29 29 30 30 30 30 30 30 30 30 30 31 31 31 30 30 30 30 30 30 31 31 32 33 33 33 34 34 34 35 35 36 36 37 38 39 40
22 21 21 20 20 20 21 21 22 21 21 22 22 22 22 22 22 23 23 24 24 24 23 23 23 24 24 25 26 26 27 28 28 29 29 29 29 29 30 30 30 30 30 30 30 30 30 30 30 30 30 30 30 30 30 31 31 32 32 33 33 34 34 34 34 35 35 35 36 36 37 38 39 40
22 22 22 22 22 22 22 22 22 22 22 23 23 23 23 23 24 24 25 25 25 25 24 25 25 26 26 27 28 28 28 29 29 29 29 29 29 30 30 30 30 30 29 29 29 29 28 28 28 29 29 29 29 30 30 31 32 32 33 33 34 34 34 34 34 34 35 36 36 37 38 39 40 42
23 23 23 24 23 23 22 23 23 23 23 23 24 24 24 24 25 25 25 25 25 26 26 26 27 27 28 28 28 29 28 29 29 29 29 29 29 29 29 29 28 27 27 27 27 27 27 27 28 28 29 30 30 31 31 31 32 32 33 33 34 34 35 35 35 36 37 38 39 40 41 42 43 44
24 24 24 25 25 25 25 25 26 26 25 25 25 26 26 26 26 26 26 26 26 26 26 26 27 27 28 28 28 28 28 28 28 28 28 28 27 27 27 27 27 26 26 26 26 26 27 28 29 29 30 31 31 32 32 32 33 34 34 35 35 36 37 37 38 39 40 41 42 44 45 46 47 48
24 25 26 26 26 26 26 27 27 27 28 28 28 27 26 26 26 26 26 26 26 26 27 27 27 27 27 28 28 28 29 28 28 28 28 28 27 27 28 28 26 26 26 26 26 27 28 30 31 30 31 31 32 33 34 34 35 36 36 37 38 38 39 40 41 42 43 44 46 47 49 50 50 51
26 26 26 26 26 26 26 27 28 28 29 29 28 27 26 25 25 26 26 27 27 28 28 28 29 28 28 29 29 29 29 28 28 29 28 28 28 28 28 29 27 27 29 29 28 28 29 31 33 33 33 33 34 35 36 36 37 38 38 39 40 41 42 43 44 45 46 48 49 50 52 53 54 55
27 27 27 27 27 27 28 29 29 29 29 28 26 25 25 25 26 26 27 28 29 29 29 29 29 29 29 30 29 29 29 28 28 28 28 28 29 29 29 29 28 28 29 29 29 29 29 31 34 35 36 37 36 37 38 39 39 40 40 41 42 44 45 46 47 48 50 51 52 53 54 55 56 57
28 28 29 29 29 30 30 30 29 28 27 26 25 25 26 26 27 28 29 30 30 30 30 30 30 30 30 29 29 29 29 28 28 28 27 28 29 29 29 30 29 29 30 31 31 30 30 32 35 37 39 40 39 39 40 41 41 42 43 44 45 47 48 49 50 51 52 53 54 55 56 57 58 59
29 29 30 29 29 29 28 28 27 26 25 26 26 27 27 28 29 30 30 31 30 30 30 30 31 31 30 29 29 29 29 29 29 29 29 29 29 30 29 30 31 31 32 33 34 34 35 37 39 41 41 42 41 40 40 42 44 45 46 47 48 49 50 51 52 52 53 54 55 56 57 59 61 62
29 29 28 27 26 26 26 26 26 26 26 27 28 28 29 30 30 31 31 31 32 32 32 32 31 30 30 29 29 29 29 30 30 31 32 31 32 32 31 32 34 34 34 37 37 38 40 40 41 42 42 42 43 43 42 44 45 46 47 48 49 50 51 51 52 53 54 55 57 58 60 62 64 66
27 27 26 26 25 26 26 25 26 27 27 28 29 30 30 30 31 31 31 32 32 33 33 32 31 30 29 29 29 30 31 32 34 35 35 35 36 36 36 37 38 36 36 39 40 41 42 42 42 43 43 43 44 45 45 46 47 48 49 49 50 51 52 53 54 55 57 58 60 62 64 66 67 69
27 26 26 26 27 26 26 27 28 29 29 29 30 29 30 30 30 31 31 32 32 33 33 33 33 32 31 31 31 33 34 36 36 38 38 37 38 38 38 40 41 39 38 41 43 43 43 43 43 43 44 45 46 46 47 48 49 50 50 51 52 53 54 55 56 58 59 61 63 65 67 68 70 72
27 28 27 28 28 28 28 28 29 30 30 30 29 29 31 31 31 32 33 33 32 33 34 35 35 35 35 35 36 37 38 39 39 39 39 38 38 38 38 39 41 41 40 42 44 44 44 44 44 44 46 48 50 50 50 49 49 50 51 52 53 54 55 56 58 59 61 63 65 67 69 71 73 75
29 29 29 29 29 30 30 30 30 32 32 31 31 31 32 33 34 35 36 35 35 35 35 36 37 38 39 39 40 40 40 41 40 41 41 41 41 41 40 39 41 41 41 43 44 45 45 45 46 48 49 51 52 52 52 51 51 51 52 52 54 55 56 58 59 61 63 65 68 70 72 74 76 78
27 28 28 29 29 31 32 32 32 34 33 32 32 33 34 35 37 38 37 37 36 36 36 38 40 41 41 40 40 41 41 41 41 41 41 41 40 40 40 39 40 41 42 43 44 46 47 47 49 51 51 51 52 53 53 53 53 53 53 54 55 56 58 60 62 64 67 69 71 73 76 78 80 81
31 30 29 28 29 31 32 33 33 34 33 32 32 32 33 35 37 38 37 37 37 38 40 42 43 42 41 40 39 40 40 40 39 38 37 37 38 38 39 40 41 41 43 44 46 48 49 49 50 50 51 51 52 53 53 53 53 54 55 56 57 59 61 63 65 68 70 73 75 77 79 81 82 84
33 31 29 30 31 31 33 34 35 35 33 32 32 33 34 37 39 40 39 39 40 42 43 44 43 42 41 40 39 38 37 37 37 36 36 37 38 39 40 42 43 44 45 46 47 48 48 48 48 49 50 51 51 52 53 53 54 55 57 58 59 62 64 67 70 72 74 76 78 79 81 82 83 83
32 31 31 32 34 34 35 35 35 35 35 35 35 36 38 39 41 43 44 45 45 45 44 43 43 42 41 40 39 38 38 38 37 37 38 40 41 42 43 44 45 45 45 46 46 47 47 48 48 48 49 50 51 52 53 54 55 56 58 61 63 65 68 71 73 75 77 79 80 81 82 82 80 77
36 36 37 38 39 39 39 38 38 38 39 39 41 42 43 45 47 49 48 47 45 43 42 42 41 40 39 39 39 39 40 40 41 42 43 44 45 45 46 45 45 45 46 46 47 47 47 48 48 49 49 50 52 53 54 56 57 59 61 63 66 68 71 73 75 76 78 80 80 81 80 77 73 69
34 35 36 38 40 42 42 41 40 41 42 43 44 46 47 49 51 50 48 45 43 41 40 39 38 38 39 40 41 42 44 45 46 46 47 47 46 46 45 45 45 45 46 46 47 47 48 48 49 50 50 51 53 54 56 57 59 62 64 66 69 71 73 74 76 78 79 79 79 77 74 70 65 62
34 34 34 35 37 39 40 40 41 42 41 40 39 41 44 47 48 48 46 45 44 43 42 40 40 41 42 44 46 47 48 49 49 49 49 48 47 46 46 46 46 46 46 46 47 47 48 49 49 50 52 53 54 56 57 59 61 64 66 68 70 72 73 75 77 78 77 76 74 71 66 62 59 57
35 36 35 36 37 38 39 40 41 42 42 41 42 44 46 47 47 47 46 47 47 45 43 43 43 44 46 47 48 48 48 48 49 49 48 47 47 47 47 47 47 47 46 46 47 47 48 49 50 52 53 54 56 57 59 61 63 65 67 69 71 72 74 75 75 74 72 69 65 62 60 58 55 53
36 38 39 39 40 41 42 43 44 44 45 46 47 47 46 45 45 45 45 45 45 44 43 43 45 46 47 47 47 47 47 47 47 47 47 47 47 46 46 46 47 47 47 47 47 48 49 50 51 52 53 55 57 59 61 62 64 66 68 69 70 72 73 72 71 68 64 61 58 56 55 54 52 49
34 37 41 43 44 44 44 44 44 44 44 43 42 41 41 42 43 44 44 44 45 45 46 46 46 46 46 46 46 46 45 46 46 46 46 46 45 45 45 45 46 46 46 47 48 49 50 51 52 52 54 55 57 59 61 63 65 66 67 68 69 69 69 66 63 60 57 55 53 52 50 49 47 45
34 35 38 41 43 43 43 43 43 42 42 41 41 41 42 43 43 44 44 44 45 45 46 46 46 45 45 46 45 45 45 45 45 45 45 44 44 44 45 45 45 46 47 47 48 49 50 51 53 54 56 57 58 60 61 63 64 64 65 65 66 65 62 59 56 54 52 51 49 47 45 43 42 40
36 38 40 41 42 43 44 45 45 45 45 45 45 45 44 44 43 43 44 44 44 45 45 45 45 46 46 46 45 45 45 45 44 44 44 44 44 44 44 45 45 46 47 47 48 49 50 51 53 54 56 58 60 60 60 60 60 61 62 62 60 58 55 52 51 50 49 47 46 44 42 40 39 37
41 44 46 47 48 48 48 48 48 49 49 49 49 48 47 46 46 46 46 46 47 47 47 46 47 47 46 46 45 45 44 44 44 44 44 44 44 44 44 45 45 46 46 47 48 49 50 51 52 53 55 56 57 57 57 57 57 58 58 56 54 51 49 48 48 47 46 44 43 41 40 39 37 36
49 50 51 52 52 51 51 50 50 50 50 50 51 51 50 49 49 49 48 48 48 48 47 47 48 48 47 46 45 45 45 44 44 44 43 43 44 44 44 44 45 45 46 46 47 47 48 49 50 51 52 52 53 54 54 55 54 53 52 51 49 47 46 46 45 44 43 42 41 39 38 37 36 35
52 52 53 53 53 53 53 53 52 52 52 52 52 53 54 53 53 53 52 51 50 50 49 49 49 48 46 45 44 44 43 43 42 42 42 42 42 42 43 43 44 45 45 45 45 46 47 47 48 48 49 49 50 51 52 52 51 49 47 46 45 45 44 43 42 42 41 40 39 38 37 36 35 34
50 51 52 53 53 54 54 55 55 56 56 56 55 56 57 57 57 57 57 56 55 53 52 50 48 47 45 44 43 42 41 41 40 40 40 40 41 41 42 42 42 42 43 43 43 44 44 45 45 45 46 47 48 49 49 48 47 45 43 41 41 41 41 40 40 39 39 38 38 37 36 36 35 33
51 52 53 54 55 55 56 56 57 57 58 58 58 59 59 59 60 60 59 58 57 55 52 49 46 44 42 41 40 39 39 38 38 38 38 38 39 39 40 40 40 40 40 40 41 41 41 42 42 44 45 46 46 46 45 44 43 42 41 39 38 38 38 38 38 37 37 37 37 36 36 35 35 34
52 53 53 54 55 56 56 56 56 57 57 57 58 58 57 57 56 56 55 53 52 49 47 44 42 40 39 37 37 36 36 36 36 35 36 36 37 37 38 38 38 38 38 38 38 38 39 40 41 42 43 43 43 42 41 40 39 39 39 38 37 36 36 36 36 36 36 36 36 36 35 35 34 34
53 53 53 53 53 53 53 53 53 53 53 53 53 52 51 51 50 49 48 47 46 44 42 40 38 36 35 35 34 34 34 33 34 34 35 35 35 35 35 35 35 35 35 35 36 37 38 39 40 41 40 40 39 38 37 37 36 36 36 36 36 36 35 35 35 35 35 36 36 35 35 34 34 33
55 55 54 54 53 52 52 51 51 50 49 49 48 48 47 46 46 45 44 43 41 39 37 35 34 33 33 32 32 31 31 32 33 33 33 33 33 33 33 33 33 33 33 34 35 36 37 38 38 38 37 37 36 35 35 34 34 34 34 34 35 35 35 35 35 35 35 34 35 34 34 33 33 32
55 54 53 53 52 51 50 49 49 49 49 48 47 46 45 44 43 42 40 38 37 35 33 32 31 31 30 30 29 30 31 31 32 32 32 31 31 31 30 31 31 32 33 34 34 35 36 36 36 35 34 34 33 32 32 32 32 33 33 33 33 34 34 35 35 35 35 34 34 33 33 32 31 31
Wind_Direction
253 253 249 248 250 253 254 256 258 258 258 258 259 260 262 266 267 268 272 274 274 275 275 275 276 276 277 279 282 284 285 284 285 285 286 286 287 287 287 286 286 285 285 285 284 285 285 286 287 288 289 290 292 294 295 296 297 297 297 297 297 297 295 294 292 291 290 289 288 288 287 287 286 285
251 249 247 248 251 253 255 255 255 256 257 258 259 258 260 261 262 266 269 270 271 273 273 273 274 276 279 281 282 283 282 282 283 283 284 284 284 285 284 284 284 283 283 282 282 282 282 283 284 284 286 286 288 289 291 292 293 294 295 296 296 295 294 293 292 291 290 289 288 287 287 287 286 286
247 245 245 249 253 254 255 255 254 255 255 256 258 260 261 261 261 263 264 265 269 271 270 272 275 277 280 281 282 282 280 280 280 280 281 281 282 282 282 283 283 282 281 280 280 281 282 283 283 284 285 285 286 287 287 288 290 291 293 294 294 294 293 293 292 291 290 289 288 287 286 286 286 286
246 244 244 247 251 254 256 255 254 254 254 256 259 260 262 260 260 261 262 265 269 270 272 274 276 277 278 279 280 280 279 278 278 279 280 281 282 282 282 282 282 281 280 280 281 282 283 284 285 286 286 286 286 286 286 287 288 289 290 290 291 291 291 291 291 290 289 288 287 286 285 285 284 284
245 243 243 245 250 254 255 255 254 254 255 256 258 259 259 259 260 261 263 267 270 272 273 274 274 275 276 278 279 279 279 279 279 280 281 282 283 283 282 282 281 281 281 282 283 284 284 285 286 287 287 286 286 286 286 286 287 287 287 288 288 289 289 289 289 289 288 287 286 285 284 283 283 283
246 243 243 246 249 253 254 255 254 255 256 256 256 256 256 258 261 263 266 268 269 271 272 273 273 274 275 277 278 279 280 280 281 281 282 283 283 283 283 283 283 283 283 283 284 284 285 286 286 287 287 287 286 286 286 286 286 286 286 286 287 287 287 288 288 288 287 286 286 285 284 283 282 282
245 244 245 248 250 252 254 256 255 255 255 255 254 254 254 257 261 265 267 268 268 269 270 271 271 272 273 274 275 277 278 279 279 280 280 281 281 281 282 281 282 282 282 282 283 284 285 286 286 286 286 286 285 285 285 285 285 286 286 286 286 286 286 287 287 287 287 287 286 286 285 284 284 283
246 247 249 250 251 252 254 255 256 256 255 255 254 254 256 259 263 267 268 268 268 267 267 268 268 269 270 271 273 275 276 277 277 278 278 278 278 278 278 279 279 280 281 282 282 283 283 284 284 284 284 284 284 284 284 285 286 287 287 287 287 287 287 287 287 287 288 288 288 289 288 288 287 286
251 251 251 252 252 254 255 256 256 256 256 256 255 256 259 262 265 267 268 267 267 266 265 266 268 269 270 271 272 274 276 276 276 277 277 277 278 278 279 279 280 281 282 283 283 283 283 283 283 282 282 282 282 283 285 286 287 287 287 287 287 287 287 287 287 287 288 288 289 289 289 288 288 287
256 255 255 256 256 256 257 257 257 257 257 258 258 259 262 264 266 267 267 266 266 266 266 268 269 270 271 272 273 275 277 277 277 277 278 279 280 281 282 282 283 283 284 284 283 284 283 283 282 281 281 281 282 284 285 285 285 285 285 285 284 284 284 284 285 285 286 287 287 287 288 288 287 287
259 260 260 260 258 258 258 258 258 258 259 260 260 262 264 266 268 268 268 267 267 268 269 269 270 271 271 272 274 276 277 278 278 279 280 281 282 282 283 283 284 283 283 283 283 283 283 283 282 282 281 281 282 284 284 284 284 283 283 283 282 283 283 284 285 285 286 287 287 287 287 287 288 287
260 261 261 260 258 258 259 260 261 260 262 263 264 265 266 267 268 267 266 266 266 268 269 270 271 271 271 273 274 276 277 278 280 281 282 283 283 283 284 283 283 283 283 283 283 282 282 282 281 281 281 281 282 282 282 282 282 282 282 282 283 283 284 284 284 285 286 286 286 286 287 287 287 287
258 259 259 256 254 253 254 256 259 260 262 264 266 266 267 268 268 267 266 266 267 269 270 271 272 272 273 274 275 277 278 280 281 282 284 284 285 285 285 285 284 284 283 283 282 281 281 281 280 281 280 280 280 280 281 281 281 281 281 281 282 282 282 283 284 285 286 286 287 287 287 286 286 286
254 255 255 254 253 254 255 257 259 261 261 261 262 265 267 269 268 267 267 267 268 269 271 272 273 274 275 276 277 278 279 280 282 283 284 285 286 286 285 285 285 284 283 282 282 282 282 281 281 280 280 280 280 281 281 281 281 281 281 282 282 283 284 286 287 288 289 289 289 288 288 288 287 287
252 255 256 256 256 257 258 260 261 261 262 263 264 266 268 267 267 267 268 268 269 270 271 272 273 274 275 277 278 279 280 281 282 283 283 284 284 284 284 283 283 283 281 280 280 281 282 281 280 279 279 279 280 281 282 282 282 283 284 284 285 286 287 287 288 288 288 288 288 288 288 288 288 287
255 257 258 257 258 259 260 262 262 262 263 264 265 266 266 266 267 268 269 270 271 272 272 273 274 275 277 277 278 278 280 281 282 283 283 282 281 281 280 280 280 279 278 278 279 279 280 279 279 278 278 279 280 281 281 282 283 283 284 284 285 285 286 287 287 287 287 287 287 287 288 288 288 288
256 257 259 260 262 263 263 263 263 263 262 262 263 264 265 266 268 270 271 272 273 274 275 276 277 278 278 277 277 278 279 280 281 282 283 282 280 279 277 277 277 276 277 278 278 279 280 280 280 280 281 282 283 283 283 283 284 284 285 286 287 288 289 289 289 289 289 289 289 289 289 289 290 290
255 257 260 262 264 265 265 265 264 262 261 261 261 263 265 267 269 272 273 274 275 276 276 277 277 277 277 278 278 279 279 280 281 281 281 280 279 278 278 278 277 277 277 277 277 278 278 278 281 283 284 285 285 285 286 287 288 289 290 290 291 291 291 291 291 290 290 290 290 291 291 291 291 292
255 257 259 261 262 263 263 262 261 260 260 260 262 264 266 269 271 273 274 274 275 275 275 275 275 276 277 279 280 281 281 281 282 282 281 280 278 277 278 279 278 277 277 277 277 277 276 277 281 283 284 286 286 286 287 289 290 291 291 291 291 290 290 290 290 291 291 291 291 291 292 292 292 292
253 255 256 257 258 258 258 258 258 258 259 261 264 266 268 270 271 272 272 273 274 274 274 275 276 278 281 282 282 282 282 283 285 285 285 283 281 279 277 275 274 274 276 277 277 278 279 280 283 284 284 285 286 287 288 288 288 288 288 288 288 288 289 289 289 290 290 290 290 291 291 291 291 291
252 254 254 254 254 256 257 256 256 257 259 262 264 266 268 269 269 270 271 272 273 274 276 278 279 280 281 281 280 278 279 281 283 284 284 283 282 280 277 275 274 275 276 277 278 279 280 281 282 282 283 283 284 285 286 286 286 287 287 287 287 287 288 288 288 289 289 290 290 291 291 291 291 290
254 255 255 254 254 255 256 255 256 258 261 262 264 265 266 267 268 270 271 272 273 275 277 279 280 280 279 278 277 276 276 278 280 281 281 280 279 277 276 277 277 277 276 275 277 278 278 279 279 279 280 281 282 284 285 286 287 287 287 287 287 288 288 289 289 290 291 291 291 291 291 291 291 291
256 257 256 256 256 256 257 257 257 259 261 261 262 263 264 266 268 269 270 272 273 275 277 278 278 278 277 277 276 276 276 277 277 278 279 278 276 275 274 275 277 278 276 275 276 277 278 279 279 280 281 283 285 286 286 286 286 286 287 287 288 288 289 289 290 290 290 291 291 291 292 292 293 293
256 256 257 258 258 258 259 258 257 257 259 259 261 264 266 266 266 266 268 270 273 275 277 277 278 278 278 278 278 278 277 276 275 274 274 274 273 273 273 274 276 278 277 276 276 277 278 279 281 282 283 285 286 286 285 285 285 285 286 287 287 288 289 289 290 291 292 293 294 294 295 296 296 296
253 255 259 258 256 254 254 255 255 255 255 257 261 264 263 262 262 264 267 270 273 275 276 278 280 281 280 280 280 279 279 278 277 275 273 273 272 272 274 276 278 278 277 277 277 278 279 281 282 283 284 284 284 285 285 285 285 285 285 286 287 288 289 291 293 294 296 297 298 298 299 299 299 299
253 255 255 252 249 248 249 251 253 254 255 256 258 260 259 259 262 265 268 270 272 273 275 278 281 282 280 279 279 279 278 277 276 275 275 274 274 275 277 279 280 279 278 278 279 279 280 281 282 283 284 284 284 285 286 286 287 288 289 289 291 292 294 295 297 298 299 300 300 301 301 301 301 300
252 251 248 245 245 248 250 250 252 254 254 254 255 259 261 264 266 268 270 272 275 276 278 280 281 280 279 278 279 278 277 275 274 274 274 274 275 276 278 279 280 280 279 279 280 280 281 282 283 283 284 285 286 287 288 289 290 292 293 294 295 296 298 299 300 300 301 301 301 301 301 301 301 301
249 250 248 249 251 253 253 252 254 257 258 257 258 260 262 265 267 269 272 276 278 278 279 279 277 276 276 277 277 276 275 275 273 272 272 273 275 277 279 280 281 281 282 282 282 283 284 284 285 285 286 287 288 289 291 292 294 295 296 297 298 299 300 300 301 301 301 302 302 302 303 303 303 302
251 251 251 251 254 256 256 257 260 262 263 261 259 260 262 264 266 269 273 277 279 280 279 276 273 273 274 274 272 271 270 270 270 270 272 275 278 280 281 282 283 284 284 285 285 285 286 286 287 288 289 290 291 292 294 295 296 297 298 299 300 300 301 301 302 302 302 303 304 304 304 304 303 302
254 254 254 253 255 257 259 261 264 267 266 263 261 262 264 267 269 272 275 277 280 282 281 277 274 274 273 270 267 266 267 268 270 272 276 279 281 282 282 283 284 285 285 286 286 287 287 288 289 290 291 292 293 294 295 296 298 298 299 300 301 302 302 302 303 304 305 305 305 305 304 303 303 303
256 258 260 260 260 260 261 263 267 270 268 264 264 268 271 273 274 274 275 278 281 283 282 280 277 273 270 266 265 267 269 271 274 277 280 282 283 283 284 285 285 285 285 286 287 287 288 289 290 291 292 293 294 295 296 297 299 300 301 302 303 303 304 305 306 306 306 306 305 305 304 303 303 304
260 262 265 267 266 264 264 266 270 271 269 266 269 274 277 276 274 273 274 278 281 281 279 276 273 270 268 268 270 272 275 276 277 278 280 281 282 283 284 285 285 285 286 286 287 288 289 290 291 292 293 294 295 297 298 299 301 302 303 304 305 306 307 307 307 307 307 306 305 305 305 305 305 305
262 262 263 264 264 264 266 270 272 272 270 270 273 277 278 276 273 272 272 274 274 274 274 273 273 273 273 276 278 279 280 279 279 279 280 280 281 282 283 283 284 284 285 286 287 288 289 290 292 293 295 296 298 299 300 302 303 304 305 306 307 308 308 308 307 306 306 306 306 306 307 308 308 308
260 261 261 261 263 264 266 267 268 268 269 270 273 275 275 273 272 272 273 273 274 274 275 277 278 278 279 281 281 281 280 279 279 279 279 279 280 281 282 282 283 284 285 286 287 288 290 291 293 294 296 298 300 302 303 304 305 306 307 308 309 308 308 307 306 306 306 306 307 308 309 309 309 308
261 261 260 261 262 263 263 263 263 265 268 270 272 273 274 273 273 274 275 276 277 277 278 279 280 281 282 282 280 279 278 278 278 278 278 279 280 280 281 283 284 285 286 288 289 291 292 294 295 297 298 299 300 302 303 305 307 308 308 309 308 307 307 306 305 305 306 306 307 308 308 308 307 306
263 262 261 262 264 266 266 266 267 269 271 273 274 276 277 277 277 278 278 278 279 279 280 280 281 281 281 279 277 277 276 276 277 277 278 279 280 281 282 283 285 286 288 290 292 293 294 296 298 300 301 301 301 302 304 306 308 308 308 308 307 306 306 305 305 305 306 306 307 307 307 306 305 304
263 264 265 266 268 270 271 271 272 273 275 276 277 277 277 278 278 279 279 280 280 281 281 280 280 279 277 276 275 275 275 275 276 277 278 279 280 281 283 284 286 288 290 291 293 294 296 298 300 301 302 303 304 306 307 308 308 307 307 306 305 304 304 304 304 305 306 307 307 307 305 304 302 302
266 267 267 269 270 272 273 275 275 276 276 277 278 279 279 279 279 280 280 280 280 280 280 279 277 275 274 272 272 273 273 274 275 276 277 278 280 282 284 286 288 290 291 292 294 296 298 300 301 302 304 306 307 308 308 307 307 306 305 304 304 304 304 304 305 306 307 307 307 306 305 304 302 300
268 269 270 271 272 273 275 276 277 278 278 278 279 280 280 281 281 282 282 282 280 279 277 275 273 271 270 270 270 271 272 273 274 275 277 279 281 284 286 287 289 291 292 294 296 298 300 301 302 304 306 307 307 307 306 305 305 305 304 305 305 305 306 306 307 307 308 308 308 307 306 305 304 302
264 267 269 270 272 273 274 275 275 276 277 277 277 277 278 279 280 281 281 280 278 276 274 272 269 268 268 268 269 270 271 273 275 277 279 281 283 285 287 289 290 292 294 296 298 299 301 303 305 306 306 306 305 305 304 304 304 305 305 305 305 306 306 307 308 309 310 310 309 308 307 306 305 304
261 263 264 265 266 268 269 270 271 272 272 273 273 273 274 275 275 275 275 274 273 271 269 267 265 265 266 267 269 271 272 274 276 279 281 283 285 287 289 290 292 293 295 297 299 301 302 304 305 305 305 305 304 304 304 304 305 306 306 306 306 306 308 309 310 311 311 311 311 310 309 307 305 304
262 262 262 262 262 263 263 264 265 266 266 267 267 267 268 269 269 269 268 268 266 265 264 263 264 265 266 268 269 271 273 276 278 281 283 285 287 289 290 291 292 294 297 299 300 302 303 304 305 305 304 303 303 303 304 305 306 307 307 308 308 308 309 310 312 313 313 313 312 311 310 308 306 303
264 264 264 263 263 263 264 264 264 264 264 265 265 265 266 266 266 266 265 264 264 263 263 263 264 265 266 267 269 272 274 278 280 283 285 286 287 288 290 291 294 297 299 300 301 302 304 304 304 303 303 302 303 304 305 307 308 308 309 310 311 311 312 312 313 314 315 314 313 313 311 309 307 305
268 268 268 268 268 268 268 268 268 268 268 268 267 267 267 267 267 266 265 264 263 263 263 263 263 264 265 267 270 273 277 280 282 284 285 286 287 288 290 293 296 298 299 300 302 303 303 303 303 302 302 303 305 307 308 309 310 310 311 312 313 314 315 316 316 316 316 316 315 314 313 311 309 307
274 273 273 272 273 272 272 272 271 271 271 271 270 270 269 268 267 266 265 264 263 262 261 261 261 263 266 269 273 276 278 280 282 284 285 286 287 289 292 294 297 298 300 301 302 303 302 302 301 302 303 305 307 309 310 311 312 312 313 314 315 316 317 318 319 319 318 318 317 316 314 313 311 309
Height
5791 5791 5792 5792 5792 5793 5793 5793 5793 5793 5793 5794 5795 5796 5797 5797 5797 5797 5797 5797 5797 5797 5797 5797 5798 5798 5798 5798 5798 5798 5798 5797 5797 5797 5797 5797 5797 5796 5796 5796 5796 5795 5795 5795 5795 5795 5795 5795 5795 5795 5794 5794 5793 5793 5793 5792 5792 5792 5791 5791 5791 5791 5790 5790 5790 5790 5789 5789 5789 5788 5788 5787 5787 5786
5788 5788 5789 5789 5789 5790 5790 5790 5790 5790 5791 5791 5792 5794 5795 5796 5796 5795 5796 5795 5795 5795 5795 5795 5795 5796 5796 5796 5796 5796 5795 5795 5795 5795 5795 5794 5794 5794 5794 5793 5793 5793 5793 5793 5793 5793 5793 5793 5793 5792 5792 5791 5791 5791 5790 5790 5790 5789 5789 5789 5789 5788 5788 5788 5787 5787 5787 5786 5786 5785 5785 5784 5784 5783
5785 5786 5787 5787 5787 5787 5787 5788 5788 5788 5788 5789 5790 5791 5793 5793 5793 5793 5793 5793 5793 5793 5793 5793 5793 5793 5793 5793 5793 5793 5793 5793 5793 5793 5792 5792 5792 5791 5791 5791 5791 5791 5790 5790 5790 5790 5790 5790 5790 5790 5789 5789 5788 5788 5788 5787 5787 5787 5787 5786 5786 5786 5786 5785 5785 5784 5784 5783 5783 5783 5782 5781 5781 5780
5783 5784 5784 5784 5785 5785 5785 5785 5785 5785 5786 5787 5788 5789 5790 5791 5791 5791 5791 5791 5791 5791 5791 5791 5791 5791 5791 5791 5791 5791 5791 5791 5791 5790 5790 5790 5789 5789 5789 5788 5788 5788 5788 5787 5787 5787 5787 5787 5787 5787 5787 5786 5786 5785 5785 5785 5784 5784 5784 5784 5783 5783 5783 5783 5782 5782 5781 5780 5780 5779 5779 5778 5777 5777
5780 5781 5781 5781 5782 5782 5782 5782 5782 5783 5784 5785 5786 5787 5788 5789 5789 5789 5789 5789 5789 5788 5788 5789 5789 5789 5788 5788 5789 5789 5789 5789 5788 5788 5788 5787 5787 5787 5786 5786 5786 5785 5785 5785 5785 5785 5785 5785 5784 5784 5784 5783 5783 5782 5782 5782 5781 5781 5781 5781 5780 5780 5780 5779 5779 5778 5778 5777 5776 5776 5775 5774 5774 5773
5776 5777 5778 5778 5779 5779 5779 5779 5780 5781 5782 5783 5784 5785 5786 5787 5787 5787 5787 5787 5787 5786 5786 5786 5786 5786 5786 5786 5786 5786 5786 5786 5786 5785 5785 5785 5785 5784 5784 5783 5783 5783 5782 5782 5782 5782 5782 5781 5781 5781 5781 5780 5780 5779 5779 5778 5778 5778 5777 5777 5777 5776 5776 5776 5775 5775 5774 5773 5772 5772 5771 5770 5769 5768
5773 5774 5775 5775 5776 5776 5777 5777 5778 5779 5780 5781 5782 5783 5785 5785 5785 5785 5785 5785 5784 5784 5784 5784 5784 5784 5783 5783 5784 5784 5784 5783 5783 5783 5782 5782 5782 5782 5781 5781 5780 5780 5779 5779 5779 5778 5778 5778 5778 5778 5777 5777 5776 5776 5775 5775 5774 5774 5774 5773 5773 5773 5772 5772 5771 5770 5770 5769 5768 5767 5766 5766 5765 5764
5771 5771 5771 5772 5773 5773 5774 5775 5776 5777 5778 5779 5780 5781 5782 5782 5782 5782 5782 5782 5782 5782 5781 5781 5781 5781 5781 5781 5781 5781 5781 5781 5780 5780 5780 5779 5779 5779 5778 5777 5777 5777 5776 5776 5776 5775 5775 5775 5774 5774 5773 5773 5772 5772 5772 5771 5771 5770 5770 5770 5769 5769 5768 5768 5767 5766 5766 5765 5764 5763 5762 5761 5760 5759
5768 5768 5768 5769 5770 5771 5772 5773 5774 5775 5776 5777 5778 5779 5779 5779 5779 5779 5779 5779 5779 5779 5779 5778 5778 5778 5778 5778 5778 5779 5778 5778 5778 5777 5777 5776 5776 5776 5775 5774 5774 5774 5773 5773 5773 5772 5772 5771 5771 5770 5770 5769 5769 5769 5768 5768 5767 5767 5766 5766 5765 5765 5764 5763 5763 5762 5761 5761 5760 5759 5758 5757 5756 5755
5765 5765 5766 5767 5768 5769 5770 5771 5771 5772 5773 5774 5775 5775 5776 5776 5776 5776 5776 5776 5776 5776 5776 5775 5775 5775 5775 5776 5776 5776 5776 5775 5775 5774 5774 5773 5773 5773 5772 5771 5771 5771 5770 5770 5769 5769 5768 5768 5767 5767 5767 5766 5766 5765 5765 5764 5764 5763 5762 5762 5761 5760 5760 5759 5758 5757 5757 5756 5755 5754 5753 5752 5751 5750
5762 5763 5764 5765 5766 5767 5768 5769 5769 5770 5770 5771 5772 5772 5773 5773 5773 5773 5773 5773 5773 5773 5773 5773 5772 5772 5773 5773 5773 5773 5773 5772 5771 5771 5770 5770 5770 5769 5768 5768 5767 5767 5766 5766 5765 5765 5765 5764 5764 5763 5763 5763 5762 5762 5761 5761 5760 5759 5758 5758 5757 5756 5755 5755 5754 5753 5752 5751 5750 5749 5748 5747 5746 5745
5760 5761 5762 5763 5764 5766 5767 5767 5767 5767 5768 5768 5768 5769 5769 5770 5770 5770 5770 5770 5770 5770 5769 5769 5769 5769 5770 5770 5770 5770 5769 5769 5768 5767 5767 5766 5766 5765 5764 5764 5763 5763 5762 5762 5762 5761 5761 5761 5760 5760 5760 5759 5759 5758 5757 5756 5756 5755 5754 5754 5753 5752 5751 5750 5749 5748 5747 5746 5745 5744 5743 5742 5741 5739
5758 5759 5761 5762 5763 5764 5764 5764 5764 5764 5766 5766 5766 5765 5765 5766 5766 5767 5767 5767 5767 5766 5766 5766 5766 5766 5767 5767 5766 5766 5766 5765 5764 5764 5763 5763 5762 5761 5760 5760 5759 5759 5759 5758 5758 5757 5757 5757 5757 5756 5756 5755 5755 5754 5753 5753 5752 5751 5750 5749 5748 5747 5746 5745 5744 5743 5742 5741 5740 5739 5738 5737 5736 5734
5756 5757 5758 5759 5760 5760 5761 5761 5761 5761 5762 5763 5763 5762 5762 5762 5763 5763 5763 5764 5764 5763 5763 5763 5763 5763 5763 5763 5763 5763 5762 5762 5761 5760 5760 5759 5758 5758 5757 5756 5756 5756 5755 5755 5754 5754 5753 5753 5753 5753 5752 5751 5751 5750 5749 5748 5747 5746 5746 5745 5744 5743 5742 5741 5740 5738 5737 5736 5734 5733 5732 5731 5729 5728
5753 5755 5756 5756 5757 5757 5757 5758 5758 5758 5758 5759 5759 5759 5759 5759 5759 5760 5760 5760 5760 5760 5760 5761 5760 5760 5760 5760 5759 5759 5759 5758 5758 5757 5756 5756 5755 5754 5753 5752 5753 5752 5751 5751 5751 5751 5750 5749 5749 5749 5748 5747 5747 5746 5745 5744 5743 5742 5741 5740 5739 5738 5737 5736 5734 5733 5732 5730 5729 5727 5726 5724 5723 5721
5750 5751 5752 5753 5753 5754 5754 5755 5755 5755 5755 5755 5755 5755 5755 5756 5756 5757 5757 5757 5757 5757 5757 5758 5757 5757 5757 5757 5756 5756 5755 5755 5754 5753 5753 5752 5751 5751 5749 5749 5750 5749 5747 5747 5748 5747 5747 5745 5744 5744 5743 5743 5743 5742 5740 5740 5739 5738 5737 5736 5735 5733 5732 5730 5729 5727 5726 5725 5723 5721 5720 5718 5716 5714
5747 5748 5749 5749 5750 5750 5751 5751 5751 5751 5751 5751 5752 5752 5752 5752 5752 5753 5753 5753 5753 5754 5754 5754 5754 5754 5754 5753 5753 5752 5752 5751 5750 5750 5749 5749 5748 5747 5746 5746 5746 5745 5744 5744 5744 5744 5744 5742 5740 5740 5739 5738 5738 5737 5735 5734 5734 5733 5732 5730 5729 5727 5726 5724 5723 5721 5720 5718 5717 5715 5713 5711 5709 5707
5744 5745 5745 5746 5746 5747 5747 5747 5747 5747 5748 5748 5748 5748 5749 5749 5749 5749 5749 5749 5750 5750 5750 5750 5750 5750 5750 5749 5749 5748 5748 5747 5747 5746 5746 5745 5744 5743 5743 5742 5741 5741 5740 5740 5740 5741 5740 5737 5736 5735 5733 5732 5733 5732 5730 5729 5728 5727 5725 5724 5722 5721 5719 5718 5716 5715 5713 5712 5710 5708 5706 5704 5702 5699
5740 5741 5742 5742 5743 5743 5743 5743 5744 5744 5744 5745 5745 5745 5745 5746 5746 5746 5746 5746 5746 5746 5746 5746 5746 5746 5745 5745 5745 5744 5744 5743 5743 5742 5742 5741 5740 5740 5740 5738 5737 5736 5736 5735 5735 5736 5735 5733 5732 5730 5729 5727 5726 5726 5726 5723 5722 5720 5719 5717 5716 5715 5713 5712 5710 5708 5707 5705 5703 5701 5699 5696 5694 5691
5737 5737 5738 5739 5739 5739 5739 5740 5740 5741 5741 5741 5742 5742 5742 5743 5743 5742 5742 5742 5742 5742 5742 5742 5742 5742 5741 5741 5741 5740 5740 5739 5738 5738 5737 5737 5736 5736 5736 5735 5733 5733 5732 5730 5730 5730 5729 5728 5727 5725 5724 5722 5720 5720 5720 5719 5717 5715 5714 5712 5710 5709 5707 5705 5704 5702 5700 5698 5696 5694 5691 5689 5686 5683
5733 5734 5734 5735 5736 5736 5736 5736 5737 5737 5737 5738 5738 5739 5739 5739 5739 5739 5739 5739 5739 5738 5738 5738 5738 5738 5738 5737 5737 5737 5736 5735 5735 5734 5733 5732 5731 5731 5731 5729 5728 5729 5728 5726 5725 5724 5723 5723 5722 5719 5718 5718 5716 5715 5714 5713 5712 5710 5708 5706 5704 5703 5701 5699 5697 5695 5693 5691 5688 5686 5683 5681 5678 5675
5729 5730 5731 5731 5732 5732 5732 5733 5733 5733 5734 5734 5735 5735 5735 5735 5735 5735 5735 5735 5735 5735 5735 5735 5735 5734 5734 5734 5733 5733 5732 5731 5731 5729 5728 5728 5727 5726 5725 5723 5722 5724 5724 5721 5720 5719 5718 5717 5717 5715 5713 5712 5711 5710 5709 5707 5705 5703 5701 5700 5698 5696 5694 5692 5690 5688 5686 5683 5681 5678 5676 5673 5670 5667
5726 5727 5727 5727 5728 5728 5729 5729 5730 5730 5730 5731 5731 5732 5732 5732 5732 5731 5731 5731 5731 5731 5731 5731 5731 5731 5730 5730 5730 5729 5728 5727 5726 5725 5724 5723 5722 5721 5721 5720 5717 5718 5719 5717 5714 5713 5713 5711 5710 5709 5708 5705 5704 5704 5703 5701 5699 5697 5695 5693 5691 5689 5687 5685 5683 5681 5679 5676 5674 5670 5667 5664 5660 5657
5723 5723 5723 5724 5724 5724 5724 5725 5726 5726 5726 5727 5728 5728 5728 5728 5728 5727 5727 5727 5727 5727 5727 5727 5727 5726 5726 5726 5725 5724 5723 5722 5722 5721 5719 5718 5718 5717 5716 5715 5713 5712 5712 5711 5709 5708 5707 5706 5704 5703 5702 5699 5697 5696 5696 5695 5694 5691 5689 5687 5685 5682 5680 5678 5676 5673 5670 5668 5665 5661 5657 5653 5649 5644
5719 5720 5720 5720 5720 5720 5720 5721 5721 5721 5722 5723 5724 5724 5724 5723 5723 5723 5723 5723 5723 5723 5723 5722 5722 5721 5721 5721 5720 5718 5718 5717 5716 5715 5714 5713 5713 5712 5711 5710 5709 5707 5706 5705 5704 5702 5700 5700 5698 5696 5695 5693 5690 5689 5688 5687 5686 5685 5682 5680 5678 5675 5673 5670 5667 5664 5661 5657 5653 5649 5645 5640 5636 5632
5715 5716 5716 5716 5716 5716 5716 5716 5717 5717 5718 5719 5719 5719 5719 5718 5718 5718 5719 5719 5719 5719 5718 5717 5716 5716 5715 5715 5714 5713 5712 5711 5710 5709 5708 5707 5707 5706 5705 5704 5703 5702 5701 5699 5698 5696 5694 5693 5692 5689 5687 5686 5684 5682 5680 5679 5678 5676 5673 5671 5669 5666 5663 5660 5657 5654 5650 5646 5642 5639 5634 5629 5625 5621
5711 5712 5711 5711 5712 5712 5712 5712 5713 5713 5714 5715 5715 5715 5714 5713 5713 5713 5713 5714 5714 5713 5713 5712 5711 5710 5709 5709 5708 5707 5706 5705 5704 5703 5702 5701 5701 5700 5699 5698 5697 5696 5695 5693 5691 5689 5687 5686 5685 5683 5681 5679 5677 5675 5673 5671 5670 5668 5664 5662 5660 5657 5653 5650 5647 5643 5639 5635 5632 5629 5625 5620 5614 5609
5708 5708 5708 5708 5708 5709 5708 5709 5709 5709 5710 5710 5710 5710 5709 5709 5708 5708 5708 5708 5708 5707 5706 5705 5704 5704 5703 5703 5702 5701 5700 5699 5699 5698 5697 5696 5695 5694 5693 5692 5690 5689 5688 5686 5684 5683 5681 5679 5678 5676 5674 5672 5670 5668 5666 5663 5662 5660 5656 5653 5651 5649 5645 5641 5637 5634 5629 5626 5623 5619 5614 5608 5603 5598
5703 5704 5704 5703 5703 5703 5704 5705 5705 5705 5706 5705 5705 5704 5704 5703 5703 5703 5703 5703 5702 5701 5700 5699 5698 5698 5698 5697 5696 5696 5695 5694 5693 5692 5691 5690 5689 5688 5686 5685 5683 5682 5680 5679 5677 5676 5674 5672 5671 5669 5667 5665 5662 5660 5658 5656 5653 5652 5649 5645 5642 5639 5636 5632 5629 5625 5621 5616 5612 5608 5602 5597 5593 5589
5698 5699 5699 5699 5699 5699 5700 5700 5700 5700 5700 5700 5699 5699 5698 5698 5698 5698 5697 5696 5695 5694 5693 5693 5693 5692 5692 5691 5690 5689 5688 5687 5686 5686 5685 5683 5682 5680 5679 5678 5676 5674 5673 5671 5670 5668 5667 5665 5664 5662 5660 5658 5656 5653 5651 5649 5645 5643 5641 5637 5633 5630 5627 5623 5619 5616 5611 5606 5601 5597 5593 5588 5584 5580
5694 5694 5694 5695 5695 5695 5695 5695 5695 5695 5694 5694 5693 5693 5693 5692 5692 5692 5691 5690 5689 5688 5687 5687 5687 5686 5686 5685 5684 5683 5682 5681 5679 5678 5677 5676 5674 5673 5671 5670 5669 5668 5666 5664 5663 5662 5660 5659 5657 5655 5653 5651 5649 5646 5644 5642 5638 5635 5631 5628 5625 5621 5617 5613 5609 5604 5600 5595 5590 5586 5583 5580 5577 5573
5689 5689 5689 5690 5690 5690 5690 5690 5690 5689 5689 5688 5688 5688 5687 5687 5686 5685 5684 5683 5683 5682 5682 5681 5681 5680 5679 5678 5677 5676 5675 5673 5672 5671 5670 5669 5667 5666 5665 5663 5662 5661 5660 5658 5657 5655 5654 5652 5651 5649 5647 5644 5642 5639 5636 5633 5630 5627 5623 5619 5616 5612 5608 5603 5599 5594 5590 5585 5581 5577 5574 5570 5568 5566
5685 5685 5685 5685 5685 5685 5685 5685 5685 5684 5684 5683 5683 5682 5681 5680 5680 5679 5678 5677 5677 5676 5676 5675 5675 5674 5673 5671 5670 5669 5667 5666 5665 5664 5663 5662 5661 5659 5658 5657 5656 5655 5654 5652 5651 5649 5648 5646 5644 5642 5639 5636 5633 5631 5628 5624 5622 5618 5614 5611 5607 5603 5598 5594 5590 5585 5581 5578 5574 5570 5565 5562 5559 5557
5680 5680 5680 5680 5680 5680 5680 5679 5679 5678 5678 5677 5676 5676 5675 5674 5673 5673 5672 5671 5670 5670 5669 5669 5668 5667 5666 5665 5663 5662 5661 5660 5659 5658 5656 5655 5654 5653 5651 5651 5649 5648 5647 5646 5644 5642 5640 5639 5637 5635 5633 5630 5626 5622 5618 5616 5613 5610 5607 5603 5599 5595 5590 5585 5581 5578 5574 5570 5567 5564 5559 5555 5552 5550
5675 5675 5675 5675 5674 5674 5673 5673 5672 5672 5671 5670 5670 5669 5669 5668 5667 5666 5665 5665 5664 5663 5663 5662 5661 5661 5659 5658 5657 5656 5654 5653 5652 5651 5650 5649 5647 5646 5645 5644 5643 5641 5640 5638 5637 5635 5632 5630 5628 5626 5624 5622 5621 5617 5613 5609 5605 5602 5599 5595 5591 5587 5583 5578 5574 5571 5568 5564 5561 5558 5555 5551 5547 5544
5669 5669 5668 5668 5667 5667 5666 5666 5665 5665 5664 5664 5663 5663 5662 5661 5661 5660 5659 5659 5658 5657 5656 5656 5655 5654 5653 5652 5650 5649 5647 5646 5645 5644 5643 5642 5641 5640 5639 5637 5636 5634 5633 5631 5629 5627 5625 5623 5620 5617 5614 5612 5611 5610 5608 5604 5600 5595 5591 5588 5584 5579 5576 5572 5568 5565 5562 5559 5556 5553 5550 5547 5543 5540
5662 5662 5661 5661 5660 5660 5659 5659 5658 5658 5657 5657 5656 5656 5655 5655 5654 5653 5653 5652 5651 5650 5650 5649 5649 5647 5646 5645 5643 5642 5641 5640 5639 5638 5637 5636 5634 5633 5632 5630 5629 5627 5625 5623 5621 5619 5617 5615 5613 5611 5608 5605 5602 5600 5599 5598 5595 5590 5584 5581 5577 5574 5570 5567 5563 5559 5556 5553 5551 5548 5545 5542 5539 5536
5655 5655 5654 5654 5653 5652 5652 5651 5651 5651 5650 5650 5649 5648 5648 5647 5647 5646 5645 5645 5644 5643 5643 5642 5641 5640 5638 5637 5636 5635 5634 5633 5632 5631 5630 5629 5627 5626 5625 5623 5622 5620 5618 5617 5615 5613 5611 5609 5607 5605 5602 5599 5596 5593 5590 5588 5587 5584 5579 5574 5571 5568 5565 5561 5558 5554 5551 5548 5545 5543 5540 5538 5535 5531
5648 5647 5647 5646 5645 5645 5644 5644 5643 5643 5642 5642 5641 5641 5640 5639 5639 5638 5637 5637 5636 5636 5635 5634 5633 5632 5631 5629 5628 5627 5626 5626 5625 5624 5623 5622 5620 5619 5618 5617 5615 5614 5612 5610 5609 5607 5605 5603 5601 5599 5596 5593 5591 5588 5584 5580 5578 5577 5574 5569 5565 5562 5559 5556 5552 5549 5546 5543 5541 5538 5535 5532 5530 5527
5641 5640 5639 5639 5638 5637 5637 5636 5636 5635 5635 5634 5634 5633 5632 5632 5631 5630 5630 5629 5629 5628 5628 5627 5625 5624 5623 5622 5621 5620 5619 5618 5618 5617 5616 5615 5614 5613 5612 5610 5609 5608 5606 5605 5603 5601 5599 5597 5595 5593 5590 5587 5584 5582 5578 5575 5571 5569 5567 5565 5561 5557 5553 5551 5548 5544 5541 5538 5535 5533 5530 5527 5525 5522
5634 5633 5632 5631 5631 5630 5629 5629 5628 5628 5627 5627 5626 5626 5625 5624 5624 5623 5622 5622 5621 5620 5620 5619 5617 5617 5616 5615 5614 5614 5613 5612 5611 5610 5610 5609 5608 5607 5606 5605 5603 5602 5601 5599 5597 5595 5594 5592 5590 5587 5584 5581 5579 5576 5572 5569 5565 5562 5560 5559 5557 5553 5549 5546 5543 5540 5537 5534 5531 5528 5525 5523 5520 5518
5626 5625 5624 5624 5623 5622 5622 5621 5621 5620 5620 5619 5619 5618 5617 5616 5616 5615 5614 5614 5613 5613 5612 5611 5610 5610 5609 5608 5608 5607 5607 5606 5605 5605 5604 5603 5602 5601 5600 5599 5598 5597 5595 5593 5592 5590 5588 5586 5584 5581 5579 5576 5573 5570 5567 5563 5560 5557 5554 5552 5551 5549 5546 5542 5539 5535 5532 5529 5526 5524 5521 5518 5515 5513
5617 5617 5616 5615 5615 5614 5614 5613 5613 5612 5612 5611 5611 5610 5610 5609 5608 5608 5607 5606 5606 5605 5605 5604 5604 5603 5603 5603 5602 5602 5601 5600 5600 5599 5599 5598 5597 5596 5595 5594 5592 5591 5589 5588 5586 5585 5583 5580 5578 5576 5573 5571 5568 5564 5561 5558 5556 5553 5550 5547 5545 5543 5540 5538 5535 5533 5529 5525 5522 5519 5517 5514 5511 5509
5608 5608 5607 5607 5607 5606 5606 5605 5605 5604 5604 5604 5604 5603 5602 5601 5601 5600 5600 5599 5599 5598 5598 5598 5598 5597 5597 5597 5597 5596 5596 5595 5595 5594 5594 5593 5592 5591 5590 5588 5587 5586 5585 5583 5582 5579 5577 5575 5573 5570 5568 5565 5562 5559 5556 5554 5551 5549 5546 5543 5540 5538 5535 5533 5530 5528 5526 5523 5519 5516 5513 5510 5507 5505
5598 5598 5598 5598 5598 5597 5597 5597 5596 5596 5596 5596 5596 5596 5595 5594 5594 5593 5593 5593 5592 5592 5592 5592 5592 5592 5592 5592 5591 5591 5591 5590 5590 5589 5589 5588 5587 5586 5585 5583 5582 5581 5580 5578 5576 5574 5572 5570 5568 5565 5563 5560 5557 5555 5552 5550 5547 5545 5542 5540 5537 5534 5531 5529 5526 5523 5521 5519 5516 5512 5509 5506 5503 5501